Weather History for Moffett NAS, CA

Change the Weather History Date:

Monday, March 25, 2013

  Actual Average Record
Temperature  
Mean Temperature 53 °F 57 °F  
Max Temperature 58 °F 66 °F 82 °F (1952)
Min Temperature 47 °F 48 °F 36 °F (1964)
Degree Days  
Heating Degree Days 12    
Month to date heating degree days 213  
Since 1 July heating degree days 1890  
Cooling Degree Days 0    
Month to date cooling degree days 0  
Year to date cooling degree days 0  
Growing Degree Days 2 (Base 50)    
Moisture  
Dew Point 44 °F    
Average Humidity 74    
Maximum Humidity 86    
Minimum Humidity 62    
Precipitation  
Precipitation 0.00 in 0.06 in 1.03 in (1993)
Month to date precipitation 0.70 1.92  
Year to date precipitation 1.42 7.74  
Since 1 July precipitation 9.19 12.79  
Sea Level Pressure  
Sea Level Pressure 30.03 in    
Wind  
Wind Speed 6 mph (NNW)    
Max Wind Speed 18 mph    
Max Gust Speed 23 mph    
Visibility 10 miles    
Events      
T = Trace of Precipitation, MM = Missing Value Source: NWS Daily Summary

Daily Weather History Graph

Daily Weather History Graph

Search for Another Location

Airport:

Trip Planner

Search our weather history database for the weather conditions in past years. The results will help you decide how hot, cold, wet, or windy it might be!

Date:

Astronomy

Mar. 25, 2013 Rise Set
Actual Time 7:03 AM PDT 7:24 PM PDT
Civil Twilight 6:37 AM PDT 7:51 PM PDT
Nautical Twilight 6:06 AM PDT 8:21 PM PDT
Astronomical Twilight 5:35 AM PDT 8:53 PM PDT
Moon 6:03 PM PDT (3/25) 5:48 AM PDT (3/25)
Length of Visible Light 13h 13m
Length of Day
12h 21m
Waxing Gibbous, 97% of the Moon is Illuminated
Mar 25
Waxing Gibbous
Mar 27
Full
Apr 2
Last Quarter
Apr 10
New
Apr 18
First Quarter

Hourly Weather History & Observations

Time (PDT) Temp. Dew Point Humidity Pressure Visibility Wind Dir Wind Speed Gust Speed Precip Events Conditions
12:56 AM 52.0 °F 46.0 °F 80% 30.04 in 10.0 mi Calm Calm - N/A   Clear
1:56 AM 50.0 °F 45.0 °F 83% 30.04 in 10.0 mi Calm Calm - N/A   Clear
2:56 AM 50.0 °F 45.0 °F 83% 30.04 in 10.0 mi Calm Calm - N/A   Clear
3:56 AM 48.0 °F 44.1 °F 86% 30.02 in 10.0 mi Calm Calm - N/A   Clear
4:56 AM 48.0 °F 43.0 °F 83% 30.03 in 10.0 mi Calm Calm - N/A   Clear
5:56 AM 48.0 °F 43.0 °F 83% 30.03 in 10.0 mi Calm Calm - N/A   Clear
6:56 AM 48.0 °F 43.0 °F 83% 30.04 in 10.0 mi Calm Calm - N/A   Clear
7:56 AM 48.9 °F 44.1 °F 83% 30.04 in 10.0 mi Calm Calm - N/A   Clear
8:56 AM 50.0 °F 46.0 °F 86% 30.04 in 10.0 mi ESE 3.5 mph - N/A   Clear
9:40 AM 51.8 °F 44.6 °F 76% 30.03 in 10.0 mi Calm Calm - N/A   Mostly Cloudy
9:49 AM 53.6 °F 46.4 °F 77% 30.04 in 10.0 mi North 5.8 mph - N/A   Scattered Clouds
9:56 AM 52.0 °F 46.0 °F 80% 30.05 in 10.0 mi North 4.6 mph - N/A   Scattered Clouds
10:56 AM 54.0 °F 46.0 °F 75% 30.06 in 10.0 mi North 8.1 mph - N/A   Clear
11:56 AM 55.9 °F 46.0 °F 69% 30.06 in 10.0 mi North 8.1 mph - N/A   Clear
12:56 PM 55.9 °F 46.0 °F 69% 30.05 in 10.0 mi North 11.5 mph - N/A   Clear
1:56 PM 57.9 °F 45.0 °F 62% 30.04 in 10.0 mi NNW 13.8 mph - N/A   Clear
2:56 PM 57.0 °F 44.1 °F 62% 30.02 in 10.0 mi NNW 13.8 mph 19.6 mph N/A   Clear
3:56 PM 57.0 °F 44.1 °F 62% 30.00 in 10.0 mi NNW 13.8 mph - N/A   Clear
4:56 PM 55.9 °F 45.0 °F 67% 29.99 in 10.0 mi North 13.8 mph - N/A   Clear
5:56 PM 55.9 °F 44.1 °F 64% 29.99 in 10.0 mi NNW 15.0 mph - N/A   Clear
6:56 PM 53.1 °F 42.1 °F 66% 29.99 in 10.0 mi NNW 8.1 mph - N/A   Clear
7:56 PM 52.0 °F 42.1 °F 69% 30.00 in 10.0 mi NNW 9.2 mph - N/A   Clear
8:56 PM 51.1 °F 42.1 °F 71% 30.01 in 10.0 mi Variable 3.5 mph - N/A   Clear
9:56 PM 48.9 °F 41.0 °F 74% 30.03 in 10.0 mi North 5.8 mph - N/A   Clear
10:56 PM 50.0 °F 42.1 °F 74% 30.04 in 10.0 mi NW 4.6 mph - N/A   Clear
11:56 PM 48.9 °F 42.1 °F 77% 30.04 in 10.0 mi NW 3.5 mph - N/A   Clear